FW2099 Weather Reports


time (UTC)temp
C
wind
direction
speed
KPH
gust
KPH
rain 1hr
cm
rain 24hr
cm
rain mn
cm
humidity
%
barometer
mb
20260901081404 22 217 1.6 4.8 0.00 0.00 0.00 92 1015.2
20260901080903 22 235 1.6 4.8 0.00 0.00 0.00 92 1015.1
20260901080403 22 244 3.2 11.3 0.00 0.00 0.00 92 1015.1
20260901075903 22 217 1.6 4.8 0.00 0.00 0.00 91 1015.2
20260901075404 22 229 1.6 4.8 0.00 0.00 0.00 91 1015.2
20260901074904 22 226 1.6 4.8 0.00 0.00 0.00 91 1015.3
20260901073903 22 216 1.6 3.2 0.00 0.00 0.00 91 1015.3
20260901073403 22 215 1.6 4.8 0.00 0.00 0.00 91 1015.3
20260901072904 22 229 1.6 8.0 0.00 0.00 0.00 91 1015.3
20260901072403 22 235 1.6 3.2 0.00 0.00 0.00 91 1015.3
20260901071904 22 223 1.6 4.8 0.00 0.00 0.00 91 1015.5
20260901071403 22 222 0.0 3.2 0.00 0.00 0.00 91 1015.5
20260901070404 22 232 1.6 4.8 0.00 0.00 0.00 90 1015.6
20260901065903 22 239 1.6 4.8 0.00 0.00 0.00 90 1015.6
20260901065404 22 210 1.6 4.8 0.00 0.00 0.00 90 1015.6
20260901064404 22 244 1.6 4.8 0.00 0.00 0.00 90 1015.6
20260901063904 22 268 1.6 4.8 0.00 0.00 0.00 90 1015.6
20260901062905 22 283 1.6 4.8 0.00 0.00 0.00 90 1015.6
20260901062404 22 237 0.0 3.2 0.00 0.00 0.00 89 1015.8
20260901061404 22 302 1.6 4.8 0.00 0.00 0.00 89 1015.8
20260901060904 22 254 1.6 4.8 0.00 0.00 0.00 89 1015.8
20260901055404 22 261 0.0 3.2 0.00 0.00 0.00 89 1016.1
20260901054903 22 243 0.0 3.2 0.00 0.00 0.00 88 1016.2
20260901053904 22 274 0.0 4.8 0.00 0.00 0.00 88 1016.1
20260901053403 22 300 0.0 3.2 0.00 0.00 0.00 88 1016.3
20260901052904 22 249 1.6 4.8 0.00 0.00 0.00 87 1016.4
20260901052403 22 260 1.6 4.8 0.00 0.00 0.00 87 1016.4
20260901051904 22 271 1.6 4.8 0.00 0.00 0.00 86 1016.4
20260901051404 22 224 1.6 3.2 0.00 0.00 0.00 86 1016.4
20260901045904 22 239 1.6 8.0 0.00 0.00 0.00 86 1016.5
20260901045404 22 161 1.6 4.8 0.00 0.00 0.00 86 1016.5
20260901044904 22 207 0.0 3.2 0.00 0.00 0.00 86 1016.5
20260901044404 22 299 0.0 3.2 0.00 0.00 0.00 86 1016.6
20260901043903 22 198 1.6 4.8 0.00 0.00 0.00 85 1016.6
20260901042904 22 292 0.0 4.8 0.00 0.00 0.00 85 1016.6
20260901041404 22 242 0.0 3.2 0.00 0.00 0.00 85 1016.8
20260901040903 22 209 1.6 3.2 0.00 0.00 0.00 85 1016.7
20260901040404 22 260 0.0 3.2 0.00 0.00 0.00 85 1016.8
20260901035903 22 294 1.6 3.2 0.00 0.00 0.00 85 1016.8
20260901035404 22 47 0.0 4.8 0.00 0.00 0.00 85 1016.8
20260901034904 22 254 1.6 8.0 0.00 0.00 0.00 84 1016.8
20260901034403 22 316 0.0 3.2 0.00 0.00 0.00 85 1016.9
20260901033903 22 208 1.6 4.8 0.00 0.00 0.00 84 1016.9
20260901033404 22 227 0.0 4.8 0.00 0.00 0.00 84 1016.9
20260901032904 22 233 0.0 4.8 0.00 0.00 0.00 84 1016.9
20260901031903 22 256 0.0 3.2 0.00 0.00 0.00 84 1017.0
20260901031404 22 280 0.0 3.2 0.00 0.00 0.00 84 1017.0
20260901030905 22 242 1.6 3.2 0.00 0.00 0.00 84 1017.0
20260901030403 22 257 0.0 3.2 0.00 0.00 0.00 84 1017.1
20260901025904 22 226 0.0 3.2 0.00 0.00 0.00 84 1017.1
20260901025403 22 281 0.0 3.2 0.00 0.00 0.00 84 1017.2
20260901024904 22 182 0.0 3.2 0.00 0.00 0.00 83 1017.2
20260901024404 22 288 1.6 4.8 0.00 0.00 0.00 83 1017.3
20260901023403 22 258 1.6 4.8 0.00 0.00 0.00 83 1017.4
20260901022403 22 203 1.6 4.8 0.00 0.00 0.00 83 1017.4
20260901021904 22 218 0.0 4.8 0.00 0.00 0.00 83 1017.3
20260901020905 22 270 0.0 3.2 0.00 0.00 0.00 83 1017.4
20260901020403 22 199 0.0 1.6 0.00 0.00 0.00 83 1017.4
20260901015903 22 211 0.0 1.6 0.00 0.00 0.00 83 1017.4
20260901015403 22 235 0.0 1.6 0.00 0.00 0.00 82 1017.4
20260901014904 22 247 0.0 1.6 0.00 0.00 0.00 82 1017.5
20260901014404 22 192 1.6 4.8 0.00 0.00 0.00 82 1017.5
20260901013403 22 239 0.0 1.6 0.00 0.00 0.00 82 1017.4
20260901012403 22 62 0.0 3.2 0.00 0.00 0.00 82 1017.5
20260901011403 22 162 0.0 3.2 0.00 0.00 0.00 82 1017.5
20260901010904 22 215 0.0 3.2 0.00 0.00 0.00 82 1017.5
20260901010403 22 210 1.6 3.2 0.00 0.00 0.00 82 1017.5
20260901005903 22 217 1.6 3.2 0.00 0.00 0.00 82 1017.4
20260901005403 22 215 1.6 3.2 0.00 0.00 0.00 82 1017.4
20260901004904 22 208 1.6 3.2 0.00 0.00 0.00 82 1017.3
20260901003903 22 108 0.0 3.2 0.00 0.00 0.00 82 1017.3
20260901003404 22 210 1.6 3.2 0.00 0.00 0.00 82 1017.3
20260901002403 22 258 1.6 4.8 0.00 0.00 0.00 81 1017.3
20260901001903 22 105 0.0 3.2 0.00 0.00 0.00 81 1017.3
20260901000903 22 65 0.0 3.2 0.00 0.00 0.00 81 1017.2
20260901000405 22 164 0.0 1.6 0.00 0.00 0.00 81 1017.2
20260831235404 22 86 1.6 4.8 0.00 0.00 0.00 80 1017.2
20260831234903 22 84 0.0 4.8 0.00 0.00 0.00 80 1017.3
20260831234404 22 40 0.0 1.6 0.00 0.00 0.00 80 1017.3
20260831233903 23 213 0.0 1.6 0.00 0.00 0.00 79 1017.3
20260831233405 23 54 0.0 1.6 0.00 0.00 0.00 79 1017.3
20260831232904 23 80 0.0 3.2 0.00 0.00 0.00 79 1017.3
20260831231904 23 188 0.0 1.6 0.00 0.00 0.00 78 1017.4
20260831231404 23 224 0.0 0.0 0.00 0.00 0.00 78 1017.4
20260831225903 23 91 1.6 4.8 0.00 0.00 0.00 77 1017.3
20260831224904 23 134 0.0 3.2 0.00 0.00 0.00 76 1017.3
20260831224404 24 216 0.0 3.2 0.00 0.00 0.00 75 1017.2
20260831222904 25 206 1.6 4.8 0.00 0.00 0.00 74 1017.3
20260831222404 25 267 1.6 4.8 0.00 0.00 0.00 73 1017.2
20260831215903 24 337 1.6 4.8 0.00 0.00 0.00 74 1017.4
20260831215404 24 241 0.0 1.6 0.00 0.00 0.00 74 1017.5
20260831214903 24 191 0.0 4.8 0.00 0.00 0.00 74 1017.6
20260831214405 24 233 1.6 3.2 0.00 0.00 0.00 73 1017.7
20260831213903 24 209 0.0 3.2 0.00 0.00 0.00 73 1017.7
20260831213403 24 112 0.0 4.8 0.00 0.00 0.00 73 1017.7
20260831212404 25 221 0.0 3.2 0.00 0.00 0.00 72 1017.6
20260831211404 25 275 1.6 3.2 0.00 0.00 0.00 72 1017.6
20260831210905 25 275 0.0 3.2 0.00 0.00 0.00 72 1017.5
20260831210404 25 216 1.6 4.8 0.00 0.00 0.00 72 1017.4
20260831205903 24 239 0.0 4.8 0.00 0.00 0.00 74 1017.5
20260831205404 25 101 1.6 4.8 0.00 0.00 0.00 73 1017.5
20260831204404 25 57 1.6 4.8 0.00 0.00 0.00 72 1017.6
20260831203904 25 145 1.6 8.0 0.00 0.00 0.00 72 1017.8
20260831203404 25 96 1.6 8.0 0.00 0.00 0.00 71 1017.9
20260831202904 25 319 1.6 4.8 0.00 0.00 0.00 72 1017.8
20260831202404 25 212 0.0 4.8 0.00 0.00 0.00 72 1017.8
20260831201903 24 209 0.0 4.8 0.00 0.00 0.00 72 1017.9
20260831201404 24 35 0.0 4.8 0.00 0.00 0.00 72 1018.0
20260831200904 24 218 0.0 4.8 0.00 0.00 0.00 72 1018.1
20260831200404 24 204 1.6 4.8 0.00 0.00 0.00 72 1018.2
20260831195403 25 78 1.6 4.8 0.00 0.00 0.00 71 1018.3
20260831194904 25 183 1.6 3.2 0.00 0.00 0.00 71 1018.3
20260831193904 25 287 1.6 3.2 0.00 0.00 0.00 71 1018.3
20260831192904 25 329 0.0 3.2 0.00 0.00 0.00 71 1018.4
20260831192403 24 64 1.6 3.2 0.00 0.00 0.00 72 1018.4
20260831191904 24 223 1.6 4.8 0.00 0.00 0.00 72 1018.5
20260831191403 24 30 3.2 8.0 0.00 0.00 0.00 71 1018.4
20260831190903 24 93 1.6 4.8 0.00 0.00 0.00 71 1018.6
20260831190403 24 59 1.6 8.0 0.00 0.00 0.00 72 1018.6
20260831185905 24 88 3.2 11.3 0.00 0.00 0.00 71 1018.6
20260831183904 24 73 4.8 11.3 0.00 0.00 0.00 71 1018.5
20260831183404 23 71 3.2 8.0 0.00 0.00 0.00 72 1018.7
20260831182904 23 54 4.8 4.8 0.00 0.00 0.00 72 1018.6
20260831181903 23 46 4.8 11.3 0.00 0.00 0.00 73 1018.7
20260831181404 23 65 8.0 12.9 0.00 0.00 0.00 73 1018.8
20260831180405 23 47 8.0 11.3 0.00 0.00 0.00 74 1018.9
20260831175904 23 67 9.7 12.9 0.00 0.00 0.00 73 1019.0
20260831175403 23 59 8.0 11.3 0.00 0.00 0.00 75 1019.2
20260831174904 23 52 9.7 12.9 0.00 0.00 0.00 73 1019.1
20260831174404 23 59 9.7 12.9 0.00 0.00 0.00 74 1018.7
20260831173903 23 78 11.3 14.5 0.00 0.00 0.00 73 1018.6
20260831173403 23 65 11.3 14.5 0.00 0.00 0.00 75 1018.9
20260831172904 23 78 9.7 12.9 0.00 0.00 0.00 75 1018.9
20260831172404 23 85 11.3 12.9 0.00 0.00 0.00 74 1018.9
20260831171903 23 61 9.7 12.9 0.00 0.00 0.00 72 1018.8
20260831171404 23 81 9.7 12.9 0.00 0.00 0.00 72 1018.8
20260831170403 23 69 6.4 11.3 0.00 0.00 0.00 74 1018.8
20260831165903 23 51 8.0 14.5 0.00 0.00 0.00 73 1018.9
20260831165404 23 74 9.7 12.9 0.00 0.00 0.00 74 1018.9
20260831164904 23 81 8.0 12.9 0.00 0.00 0.00 73 1018.9
20260831164404 22 81 9.7 12.9 0.00 0.00 0.00 72 1018.9
20260831163904 23 73 9.7 14.5 0.00 0.00 0.00 71 1018.9
20260831163404 23 67 4.8 11.3 0.00 0.00 0.00 72 1018.9
20260831162904 22 64 9.7 12.9 0.00 0.00 0.00 71 1018.8
20260831162403 22 80 9.7 12.9 0.00 0.00 0.00 73 1018.9
20260831161904 22 70 6.4 9.7 0.00 0.00 0.00 73 1019.2
20260831160404 22 88 8.0 14.5 0.00 0.00 0.00 72 1019.1
20260831155904 22 70 9.7 14.5 0.00 0.00 0.00 73 1018.9
20260831155403 22 77 8.0 11.3 0.00 0.00 0.00 73 1019.1
20260831154904 22 55 8.0 9.7 0.00 0.00 0.00 72 1019.0
20260831153403 22 58 4.8 8.0 0.00 0.00 0.00 72 1019.1
20260831151404 22 77 6.4 12.9 0.00 0.00 0.00 71 1019.2
20260831150404 22 84 4.8 12.9 0.00 0.00 0.00 74 1019.3
20260831145904 22 78 4.8 9.7 0.00 0.00 0.00 74 1019.3
20260831145404 22 82 8.0 9.7 0.00 0.00 0.00 74 1019.3
20260831144904 22 84 4.8 9.7 0.00 0.00 0.00 74 1019.3
20260831144403 22 88 3.2 9.7 0.00 0.00 0.00 75 1019.4
20260831143905 22 87 9.7 12.9 0.00 0.00 0.00 75 1019.4
20260831142903 22 86 6.4 11.3 0.00 0.00 0.00 75 1019.1
20260831142403 22 99 4.8 11.3 0.00 0.00 0.00 76 1019.1
20260831141404 22 93 8.0 11.3 0.00 0.00 0.00 75 1019.2
20260831140405 22 91 6.4 12.9 0.00 0.00 0.00 76 1019.1
20260831135404 22 91 8.0 11.3 0.00 0.00 0.00 77 1019.2
20260831134903 22 83 8.0 11.3 0.00 0.00 0.00 76 1019.2
20260831134404 22 81 3.2 4.8 0.00 0.00 0.00 78 1019.1
20260831132905 22 89 3.2 4.8 0.00 0.00 0.00 77 1019.1
20260831132403 22 102 4.8 8.0 0.00 0.00 0.00 77 1019.0
20260831131903 22 82 6.4 9.7 0.00 0.00 0.00 77 1019.0
20260831130904 22 84 4.8 9.7 0.00 0.00 0.00 78 1019.0
20260831130404 22 92 3.2 8.0 0.00 0.00 0.00 78 1018.8
20260831125904 22 79 1.6 4.8 0.00 0.00 0.00 78 1019.0
20260831125404 22 78 4.8 4.8 0.00 0.00 0.00 78 1019.1
20260831124904 22 86 4.8 8.0 0.00 0.00 0.00 78 1019.1
20260831123904 22 81 4.8 8.0 0.00 0.00 0.00 78 1019.0
20260831123404 22 113 3.2 4.8 0.00 0.00 0.00 79 1019.1
20260831122403 22 82 1.6 4.8 0.00 0.00 0.00 80 1019.1
20260831121904 22 89 1.6 3.2 0.00 0.00 0.00 81 1019.0
20260831121404 22 115 0.0 3.2 0.00 0.00 0.00 81 1019.0
20260831120904 22 128 0.0 3.2 0.00 0.00 0.00 81 1018.9
20260831115904 22 90 1.6 3.2 0.00 0.00 0.00 81 1019.0
20260831115404 22 90 1.6 3.2 0.00 0.00 0.00 81 1018.9
20260831114904 22 67 1.6 3.2 0.00 0.00 0.00 80 1018.8
20260831114404 22 87 1.6 3.2 0.00 0.00 0.00 81 1018.6
20260831113903 22 79 1.6 8.0 0.00 0.00 0.00 80 1018.7
20260831113404 22 90 4.8 9.7 0.00 0.00 0.00 80 1018.7
20260831112903 22 86 8.0 11.3 0.00 0.00 0.00 80 1018.7
20260831112403 22 62 8.0 11.3 0.00 0.00 0.00 80 1018.6
20260831111403 22 60 8.0 11.3 0.00 0.00 0.00 80 1018.7
20260831110904 22 65 9.7 11.3 0.00 0.00 0.00 79 1018.6
20260831110403 22 53 8.0 12.9 0.00 0.00 0.00 79 1018.6
20260831105903 22 74 9.7 12.9 0.00 0.00 0.00 78 1018.5
20260831105403 22 72 8.0 12.9 0.00 0.00 0.00 79 1018.4
20260831104903 22 41 9.7 11.3 0.00 0.00 0.00 78 1018.5
20260831104404 22 21 8.0 11.3 0.00 0.00 0.00 79 1018.5
20260831103904 22 33 8.0 12.9 0.00 0.00 0.00 79 1018.5
20260831103404 22 29 8.0 11.3 0.00 0.00 0.00 78 1018.4
20260831102904 22 14 8.0 11.3 0.00 0.00 0.00 79 1018.3
20260831102403 22 28 8.0 12.9 0.00 0.00 0.00 78 1018.2
20260831101404 22 36 9.7 12.9 0.00 0.00 0.00 78 1018.1
20260831100904 22 37 11.3 12.9 0.00 0.00 0.00 78 1018.0
20260831100404 22 24 9.7 12.9 0.00 0.00 0.00 77 1018.0
20260831095403 22 16 4.8 9.7 0.00 0.00 0.00 76 1017.9
20260831094904 22 24 6.4 9.7 0.00 0.00 0.00 76 1017.8
20260831094403 22 2 4.8 9.7 0.00 0.00 0.00 76 1017.7
20260831093904 22 25 4.8 8.0 0.00 0.00 0.00 76 1017.7
20260831093404 22 349 4.8 8.0 0.00 0.00 0.00 76 1017.7
20260831092903 22 326 4.8 9.7 0.00 0.00 0.00 76 1017.6
20260831092403 22 336 4.8 8.0 0.00 0.00 0.00 76 1017.7
20260831091904 22 345 4.8 8.0 0.00 0.00 0.00 76 1017.7
20260831090904 22 315 4.8 4.8 0.00 0.00 0.00 78 1017.8
20260831090403 22 312 4.8 4.8 0.00 0.00 0.00 77 1017.8
20260831085903 22 306 3.2 4.8 0.00 0.00 0.00 76 1017.7
20260831085403 22 303 4.8 8.0 0.00 0.00 0.00 77 1017.7
20260831084904 22 311 3.2 4.8 0.00 0.00 0.00 77 1017.6
20260831084404 22 319 4.8 9.7 0.00 0.00 0.00 77 1017.7
20260831083905 22 307 4.8 8.0 0.00 0.00 0.00 78 1017.8
20260831083404 22 316 4.8 8.0 0.00 0.00 0.00 77 1017.9
20260831082903 22 303 6.4 9.7 0.00 0.00 0.00 77 1017.9
20260831082403 22 305 8.0 9.7 0.00 0.00 0.00 77 1017.8
20260831081904 23 318 4.8 8.0 0.00 0.00 0.00 77 1017.7